| time (UTC) | temp C | wind direction | speed KPH | gust KPH | rain 1hr cm | rain 24hr cm | rain mn cm | humidity % | barometer mb |
| 20260502123038 | 10 | 289 | 0.0 | 0.0 | 0.00 | 1.65 | 0.00 | 98 | 1019.8 |
| 20260502121536 | 10 | 258 | 0.0 | 0.0 | 0.00 | 1.65 | 0.00 | 98 | 1019.6 |
| 20260502114530 | 9 | 350 | 0.0 | 0.0 | 0.00 | 1.65 | 0.00 | 97 | 1019.1 |
| 20260502113027 | 9 | 350 | 0.0 | 0.0 | 0.00 | 1.65 | 0.00 | 97 | 1018.7 |
| 20260502111524 | 9 | 350 | 0.0 | 0.0 | 0.00 | 1.65 | 0.00 | 97 | 1018.6 |
| 20260502110024 | 9 | 350 | 0.0 | 0.0 | 0.00 | 1.65 | 0.00 | 97 | 1018.4 |
| 20260502104522 | 9 | 350 | 0.0 | 0.0 | 0.00 | 1.65 | 0.00 | 97 | 1018.4 |
| 20260502103048 | 10 | 350 | 0.0 | 0.0 | 0.00 | 1.65 | 0.00 | 97 | 1018.2 |
| 20260502101518 | 10 | 350 | 0.0 | 0.0 | 0.00 | 1.65 | 0.00 | 97 | 1018.1 |
| 20260502091514 | 10 | 350 | 0.0 | 0.0 | 0.00 | 1.65 | 0.00 | 97 | 1017.7 |
| 20260502071503 | 11 | 340 | 0.0 | 0.0 | 0.00 | 1.75 | 0.00 | 97 | 1017.1 |
| 20260502070002 | 11 | 338 | 0.0 | 0.0 | 0.00 | 1.75 | 0.00 | 97 | 1017.1 |
| 20260502064502 | 11 | 336 | 0.0 | 0.0 | 0.00 | 1.88 | 0.00 | 97 | 1017.3 |
| 20260502063124 | 11 | 23 | 0.0 | 0.0 | 0.00 | 1.88 | 0.00 | 97 | 1017.3 |
| 20260502061600 | 11 | 23 | 0.0 | 0.0 | 0.00 | 1.88 | 0.00 | 97 | 1017.2 |
| 20260502060107 | 11 | 24 | 0.0 | 0.0 | 0.00 | 1.88 | 0.00 | 97 | 1017.2 |
| 20260502054624 | 11 | 24 | 0.0 | 0.0 | 0.00 | 1.91 | 0.00 | 97 | 1017.2 |
| 20260502053112 | 11 | 24 | 0.0 | 0.0 | 0.00 | 1.91 | 0.00 | 97 | 1017.1 |
| 20260502051554 | 11 | 25 | 0.0 | 0.0 | 0.00 | 1.91 | 0.00 | 97 | 1017.1 |
| 20260502050054 | 11 | 23 | 0.0 | 0.0 | 0.00 | 1.91 | 0.00 | 97 | 1016.9 |
| 20260502044553 | 11 | 121 | 0.0 | 0.0 | 0.00 | 1.91 | 0.66 | 97 | 1016.6 |
| 20260502043100 | 11 | 38 | 0.0 | 0.0 | 0.00 | 1.91 | 0.66 | 97 | 1016.8 |
| 20260502041551 | 11 | 31 | 0.0 | 0.0 | 0.00 | 1.91 | 0.66 | 97 | 1017.0 |
| 20260502040052 | 11 | 30 | 0.0 | 0.0 | 0.00 | 1.91 | 0.66 | 97 | 1017.1 |
| 20260502034551 | 11 | 25 | 0.0 | 0.0 | 0.00 | 1.96 | 0.66 | 97 | 1017.0 |
| 20260502033049 | 11 | 22 | 0.0 | 0.0 | 0.00 | 1.96 | 0.66 | 97 | 1017.0 |
| 20260502031546 | 11 | 58 | 0.0 | 0.0 | 0.00 | 1.96 | 0.66 | 97 | 1016.8 |
| 20260502030053 | 11 | 24 | 0.0 | 0.0 | 0.00 | 1.96 | 0.66 | 97 | 1016.6 |
| 20260502024545 | 11 | 23 | 0.0 | 0.0 | 0.00 | 1.96 | 0.66 | 97 | 1016.6 |
| 20260502023043 | 10 | 33 | 0.0 | 0.0 | 0.03 | 1.96 | 0.66 | 97 | 1016.4 |
| 20260502021542 | 10 | 46 | 0.0 | 0.0 | 0.03 | 1.96 | 0.66 | 97 | 1016.2 |
| 20260502020041 | 10 | 28 | 0.0 | 1.6 | 0.05 | 1.96 | 0.66 | 97 | 1016.2 |
| 20260502014539 | 10 | 17 | 0.0 | 0.0 | 0.08 | 1.93 | 0.64 | 97 | 1015.8 |
| 20260502013037 | 10 | 355 | 0.0 | 0.0 | 0.08 | 1.93 | 0.64 | 97 | 1015.4 |
| 20260502011537 | 11 | 68 | 0.0 | 0.0 | 0.13 | 1.93 | 0.64 | 97 | 1015.0 |
| 20260502010042 | 11 | 25 | 0.0 | 0.0 | 0.13 | 1.91 | 0.61 | 97 | 1015.5 |
| 20260502004535 | 11 | 59 | 0.0 | 0.0 | 0.10 | 1.85 | 0.56 | 96 | 1015.7 |
| 20260502003032 | 11 | 20 | 0.0 | 0.0 | 0.13 | 1.85 | 0.56 | 97 | 1015.2 |
| 20260502001532 | 11 | 360 | 0.0 | 0.0 | 0.08 | 1.80 | 0.51 | 97 | 1015.3 |
| 20260502000028 | 11 | 13 | 0.0 | 0.0 | 0.08 | 1.78 | 0.48 | 97 | 1015.0 |
| 20260501234525 | 11 | 21 | 0.0 | 0.0 | 0.05 | 1.75 | 0.46 | 96 | 1014.5 |
| 20260501233022 | 11 | 19 | 0.0 | 0.0 | 0.05 | 1.73 | 0.43 | 97 | 1014.1 |
| 20260501231522 | 11 | 17 | 0.0 | 1.6 | 0.05 | 1.73 | 0.43 | 97 | 1013.4 |
| 20260501230026 | 11 | 19 | 0.0 | 14.5 | 0.03 | 1.70 | 0.41 | 96 | 1012.9 |
| 20260501224524 | 11 | 69 | 0.0 | 3.2 | 0.05 | 1.73 | 0.41 | 96 | 1012.4 |
| 20260501223033 | 12 | 350 | 0.0 | 1.6 | 0.05 | 1.70 | 0.38 | 96 | 1012.7 |
| 20260501221518 | 12 | 9 | 0.0 | 0.0 | 0.08 | 1.70 | 0.38 | 97 | 1013.0 |
| 20260501220018 | 12 | 48 | 0.0 | 0.0 | 0.10 | 1.70 | 0.38 | 97 | 1012.7 |
| 20260501214527 | 12 | 34 | 0.0 | 0.0 | 0.10 | 1.68 | 0.36 | 97 | 1013.1 |
| 20260501213017 | 12 | 35 | 0.0 | 0.0 | 0.08 | 1.65 | 0.33 | 96 | 1012.8 |
| 20260501211516 | 12 | 42 | 0.0 | 1.6 | 0.10 | 1.63 | 0.30 | 96 | 1012.5 |
| 20260501210016 | 12 | 22 | 0.0 | 1.6 | 0.15 | 1.60 | 0.28 | 97 | 1011.8 |
| 20260501204513 | 12 | 59 | 0.0 | 16.1 | 0.25 | 1.57 | 0.25 | 96 | 1011.5 |
| 20260501203023 | 12 | 63 | 0.0 | 1.6 | 0.25 | 1.57 | 0.25 | 97 | 1012.5 |
| 20260501201510 | 13 | 5 | 0.0 | 6.4 | 0.20 | 1.52 | 0.20 | 96 | 1013.4 |
| 20260501200007 | 13 | 15 | 0.0 | 0.0 | 0.10 | 1.42 | 0.10 | 96 | 1014.0 |
| 20260501194504 | 13 | 360 | 0.0 | 0.0 | 0.00 | 1.32 | 0.00 | 96 | 1013.7 |
| 20260501193100 | 13 | 63 | 0.0 | 3.2 | 0.00 | 1.32 | 0.00 | 97 | 1012.2 |